Tracking 19817 objects as of 18-Aug-2019
HD Live streaming from Space Station
objects crossing your sky now

CZ-3A R/B

Track CZ-3A R/B now!
10-day predictions


NORAD ID: 37235
Int'l Code: 2010-064B
Perigee: 169.3 km
Apogee: 17,388.6 km
Inclination: 24.2 °
Period: 309.3 minutes
Semi major axis: 15149 km
RCS: 5.0119 m2 (large)
Launch date: November 24, 2010
Source: People's Republic of China (PRC)
Launch site: Xichang Space Center, China (XSC)

Note: This is a ROCKET BODY
aabbcc
Your satellite tracking list
Your tracking list is empty




NASA's NSSDC Master Catalog

Two Line Element Set (TLE):
1 37235U 10064B   19229.14159848  .00111394  43881-6  80591-3 0  9999
2 37235  24.1618 264.4160 5682935  99.2254 325.7766  4.65570898 99002
Source of the keplerian elements: AFSPC